Estación Meteorológica Peña el Pijo (Robertgarden) [ 09/30/20 20:17:16 CEST ]

Fecha Hora Presion(HPa) Temp (°C) Humedad % Rocio (°C) Viento ( m/s) Direccion Lluvia 1Hora(mm) Lluvia 24H(mm) LLuvia Total(mm)
2020-Feb-27 01:09:03 1010.900 - - - - N     39.88
2020-Feb-27 02:10:50 1010.500 - - - - N     39.88
2020-Feb-27 03:08:52 1010.200 - - - - N     39.88
2020-Feb-27 04:09:11 1010.000 - - - - N     39.88
2020-Feb-27 05:09:08 1009.700 - - - - N     39.88
2020-Feb-27 06:09:06 1009.600 - - - - N     39.88
2020-Feb-27 07:09:33 1009.900 - - - - N     39.88
2020-Feb-27 08:09:17 1010.400 - - - - N     39.88
2020-Feb-27 09:08:58 1010.900 - - - - N     39.88
2020-Feb-27 10:08:55 1011.200 - - - - N     39.88
2020-Feb-27 11:08:53 1011.600 - - - - N     39.88
2020-Feb-27 12:09:08 1011.600 - - - - N     39.88
2020-Feb-27 13:08:46 1011.100 - - - - N     39.88
2020-Feb-27 14:08:39 1010.800 - - - - N     39.88
2020-Feb-27 15:09:17 1010.800 - - - - N     39.88
2020-Feb-27 16:09:24 1010.900 - - - - N     39.88
2020-Feb-27 17:09:06 1011.000 - - - - N     39.88
2020-Feb-27 18:09:26 1011.500 - - - - N     39.88
2020-Feb-27 19:09:21 1012.100 - - - - N     39.88
2020-Feb-27 20:09:23 1012.700 - - - - N     39.88
2020-Feb-27 21:09:14 1013.400 - - - - N     39.88
2020-Feb-27 22:08:59 1013.700 - - - - N     39.88
2020-Feb-27 23:08:59 1014.100 - - - - N     39.88

Temperatura Máxima:    Temperatura Mínima:
Presión Máxima:1014.100 Hpa    Presión Mínima:1009.600 Hpa


Volver